Location: Ajisawe
(8.4333°N, 4.3833°E)
Time: 13:18:50
(UTC+00:00)

Courier 1B Rocket - Pass Details

Date: 23 April 2021
Orbit: 920 x 1202 km, 28.2° (Epoch: 07 May)

Event Time Altitude Azimuth Distance (km) Brightness Sun altitude
Rises 12:00:31 0° 202° (SSW) 3,654 8.0 83.5°
Reaches altitude 10° 12:05:46 10° 167° (SSE) 2,648 7.4 82.5°
Maximum altitude 12:07:20 11° 152° (SSE) 2,569 7.3 82.2°
Drops below altitude 10° 12:08:53 10° 138° (SE) 2,624 7.3 81.9°
Sets 12:13:57 0° 103° (ESE) 3,545 7.8 80.8°
